sat.trackr.live / text

‹ back to catalog

STARLINK-34382

NORAD 64667 · 2025-139D

PAYLOAD ACTIVE UNKNOWN

§ Identity

Operator
Country
US
Launch date
2025-06-28
Launch site
AFETR
Launch vehicle
Mass (kg)
RCS (m²)

Purposes: comms

External: N2YO · Heavens-Above · Gunter

§ Orbital elements

Epoch: 2026-09-20T14:31:09.521184Z

Period
93.85 min
Inclination
53.1582°
Eccentricity
0.0001252
Mean motion
15.34406614 rev/d
Perigee alt
461.8 km
Apogee alt
463.5 km
Semi-major
6,840.8 km
B*
6.2284e-4
RAAN
299.0477°
Arg perigee
83.6293°
Mean anomaly
276.4852°
Rev number
7,016

§ Raw data

STARLINK-343821 64667U 25139D   26263.60497131  .00020730  00000+0  62284-3 0  99952 64667  53.1582 299.0477 0001252  83.6293 276.4852 15.34406614 70166

JSON: /api/v1/satellites/64667 · /tle

For live sub-satellite position, see the globe view (requires WebGL).

§ Visibility from observer

Set your observer location to see the next 7 days of passes ≥ 10°. The values pass through the URL so the page stays shareable.

No JS? Fill the form by hand. The geolocation button needs JavaScript.